Welcome to the New NWS' Forecast!
Most changes are behind the scenes, but click here for differences you might notice.

Regional Weather Roundup (RWR)

Issued by National Weather Service (NWS)

                            
513 
ASUS46 KSEW 141810
RWRWA 

WASHINGTON REGIONAL WEATHER ROUNDUP
NATIONAL WEATHER SERVICE SEATTLE WA
1100 AM PDT SAT JUL 14 2018

NOTE:"FAIR" INDICATES FEW OR NO CLOUDS BELOW 12,000 FEET WITH NO 
SIGNIFICANT WEATHER AND/OR OBSTRUCTIONS TO VISIBILITY.

WAZ507-509-555>559-141900-
SEATTLE, TACOMA, EVERETT, AND VICINITY
  
CITY           SKY/WX    TMP DP  RH WIND       PRES   REMARKS
EVERETT        SUNNY     68  53  58 NW8       30.16F                  
6HR MIN TEMP:  58; 6HR MAX TEMP:  68;                                

BOEING FIELD   SUNNY     73  51  46 NW7       30.13F                  
6HR MIN TEMP:  61; 6HR MAX TEMP:  73;                                

RENTON         SUNNY     74  52  46 N6        30.13S                  
6HR MIN TEMP:  61; 6HR MAX TEMP:  74;                                

SEATAC AIRPORT SUNNY     73  53  49 W9        30.15S                  
6HR MIN TEMP:  58; 6HR MAX TEMP:  74;                                

JBLM-MCCHORD   SUNNY     72  55  54 N7        30.14F                  
6HR MIN TEMP:  51; 6HR MAX TEMP:  73; 6HR PCP: TRACE;                

PUYALLUP       FAIR      75  55  50 CALM      30.14F                  
BREMERTON      SUNNY     73  52  47 NE10      30.14F                  
6HR MIN TEMP:  50; 6HR MAX TEMP:  73;                                

JBLM-FT LEWIS  SUNNY     72  55  53 N6        30.13F                  
6HR MIN TEMP:  53; 6HR MAX TEMP:  73;                                

TACOMA NARROWS SUNNY     68  49  50 N14       30.14F                  
6HR MIN TEMP:  55; 6HR MAX TEMP:  69;                                

$$
 
WAZ001-503-506-510-514-515-141900-
NORTH INTERIOR
  
CITY           SKY/WX    TMP DP  RH WIND       PRES   REMARKS
BELLINGHAM     SUNNY     77  54  44 VRB5      30.15F                  
6HR MIN TEMP:  53; 6HR MAX TEMP:  77;                                

FRIDAY HARBOR  SUNNY     73  51  46 N12       30.18S                  
6HR MIN TEMP:  49; 6HR MAX TEMP:  73;                                

EASTSOUND      SUNNY     64  57  77 VRB7      30.17S                  
PORT ANGELES   SUNNY     71  49  45 E8        30.19S                  
6HR MIN TEMP:  49; 6HR MAX TEMP:  71;                                

EDIZ HOOK      FAIR      66  49  54 CALM      30.18S                  
6HR MIN TEMP:  50; 6HR MAX TEMP:  69;                                

PORT TOWNSEND  FAIR      70  54  56 VRB6G13   30.16F                  
NAS WHIDBEY    SUNNY     65  52  62 W8        30.20S                  
6HR MIN TEMP:  52; 6HR MAX TEMP:  66;                                

ARLINGTON      MOSUNNY   72  54  53 CALM      30.14F                  
6HR MIN TEMP:  52; 6HR MAX TEMP:  73;                                

BURLINGTON     SUNNY     70  55  60 W8        30.15F                  
$$
 
WAZ020-022-039-040-504-511-512-141900-
SOUTHWEST INTERIOR
  
CITY           SKY/WX    TMP DP  RH WIND       PRES   REMARKS
SHELTON        SUNNY     74  53  48 SE8       30.12F                  
6HR MIN TEMP:  52; 6HR MAX TEMP:  74;                                

OLYMPIA        SUNNY     74  50  42 NE13      30.14F                  
6HR MIN TEMP:  49; 6HR MAX TEMP:  74;                                

CHEHALIS       FAIR      73  55  53 VRB6G13   30.14S                  
KELSO          SUNNY     72  54  53 VRB3      30.13F                  
6HR MIN TEMP:  53; 6HR MAX TEMP:  72;                                

VANCOUVER      SUNNY     72  55  55 W9        30.11F                  
6HR MIN TEMP:  57; 6HR MAX TEMP:  72;                                

SCAPPOOSE, OR  SUNNY     73  54  51 VRB7      30.10F                  
6HR MIN TEMP:  52; 6HR MAX TEMP:  73;                                

PORTLAND, OR   SUNNY     72  54  53 W6        30.11F                  
6HR MIN TEMP:  59; 6HR MAX TEMP:  73;                                

$$
 
WAZ021-516-517-141900-
WASHINGTON COAST
  
CITY           SKY/WX    TMP DP  RH WIND       PRES   REMARKS
FORKS          SUNNY     72  56  57 SW6       30.15S                  
6HR MIN TEMP:  46; 6HR MAX TEMP:  73;                                

HOQUIAM        SUNNY     66  59  78 S7        30.15F                  
6HR MIN TEMP:  52; 6HR MAX TEMP:  67;                                

ASTORIA, OR    SUNNY     66  58  75 NW7       30.14S                  
6HR MIN TEMP:  52; 6HR MAX TEMP:  66;                                

$$
 
WAZ019-023-024-040-567>569-141900-
CASCADE MOUNTAINS AND COLUMBIA GORGE
  
CITY           SKY/WX    TMP DP  RH WIND       PRES   REMARKS
STAMPEDE PASS  SUNNY     74  49  41 VRB3      30.24R                  
6HR MIN TEMP:  53; 6HR MAX TEMP:  74;                                

TROUTDALE, OR  SUNNY     73  54  51 CALM      30.10F                  
6HR MIN TEMP:  57; 6HR MAX TEMP:  73;                                

HOOD RIVER, OR CLEAR     79  50  36 CALM      30.09F                  
THE DALLES, OR SUNNY     86  50  28 VRB6      30.06F                  
6HR MIN TEMP:  66; 6HR MAX TEMP:  86;                                

$$

WAZ026-027-041>044-520-521-141900-
EAST SLOPES
  
CITY           SKY/WX    TMP DP  RH WIND       PRES   REMARKS
OMAK           SUNNY     81  30  15 N21G30    30.16F                  
6HR MIN TEMP:  69; 6HR MAX TEMP:  81;                                

WENATCHEE      SUNNY     81  42  25 VRB6      30.12F                  
6HR MIN TEMP:  66; 6HR MAX TEMP:  81;                                

ELLENSBURG     SUNNY     85  47  26 NE5       30.14S                  
6HR MIN TEMP:  67; 6HR MAX TEMP:  85;                                

YAKIMA         SUNNY     86  41  20 MISG      30.11F                  
6HR MIN TEMP:  65; 6HR MAX TEMP:  87;                                

SUNNYSIDE ARPT CLEAR     85  49  28 N10G20    30.08S                  
6HR MIN TEMP:  54; 6HR MAX TEMP:  85;                                

YAKIMA TC        N/A     86  36  16 E14G21    30.10F                  
6HR MIN TEMP:  66; 6HR MAX TEMP:  86;                                

$$

WAZ028-034-035-141900-
COLUMBIA BASIN
  
CITY           SKY/WX    TMP DP  RH WIND       PRES   REMARKS
EPHRATA        MOSUNNY   84  23  10 N25G32    30.12F                  
6HR MIN TEMP:  73; 6HR MAX TEMP:  84;                                

MOSES LAKE     SUNNY     85  35  16 N16G29    30.11S                  
6HR MIN TEMP:  68; 6HR MAX TEMP:  85; 6HR PCP: TRACE;                

PASCO          SUNNY     86  51  29 N13       30.07F                  
6HR MIN TEMP:  62; 6HR MAX TEMP:  86;                                

RICHLAND ARPT  CLEAR     90  45  20 N14       30.07S                  
6HR MIN TEMP:  65; 6HR MAX TEMP:  90;                                

HERMISTON, OR  SUNNY     89  50  26 NE5       30.07F                  
6HR MIN TEMP:  63; 6HR MAX TEMP:  89;                                

$$

WAZ036>038-141900-
NORTHEAST WASHINGTON
  
CITY           SKY/WX    TMP DP  RH WIND       PRES   REMARKS
SPOKANE GEIGER MOSUNNY   80  36  20 NW6       30.11R                  
6HR MIN TEMP:  63; 6HR MAX TEMP:  81;                                

SPOKANE FELTS  SUNNY     82  41  23 NW5G14    30.08F                  
6HR MIN TEMP:  62; 6HR MAX TEMP:  83;                                

FAIRCHILD AFB  SUNNY     80  35  20 N12       30.12R                  
6HR MIN TEMP:  58; 6HR MAX TEMP:  80;                                

COEURDALENE,ID SUNNY     80  49  33 VRB3      30.10S                  
6HR MIN TEMP:  60; 6HR MAX TEMP:  80;                                

DEER PARK      SUNNY     81  38  21 NW12      30.10R                  
6HR MIN TEMP:  54; 6HR MAX TEMP:  81;                                

$$

WAZ029>033-141900-
SOUTHEAST WASHINGTON
  
CITY           SKY/WX    TMP DP  RH WIND       PRES   REMARKS
PULLMAN        SUNNY     78  48  34 W8        30.15R                  
6HR MIN TEMP:  66; 6HR MAX TEMP:  78;                                

LEWISTON, ID   SUNNY     89  46  22 NW12      30.07S                  
6HR MIN TEMP:  67; 6HR MAX TEMP:  89;                                

WALLA WALLA    SUNNY     84  47  27 S10       30.09S                  
6HR MIN TEMP:  72; 6HR MAX TEMP:  85;                                

PENDLETON, OR  SUNNY     83  45  26 CALM      30.10S                  
6HR MIN TEMP:  65; 6HR MAX TEMP:  85;                                

$$